[[{"header":{"parameterUnit":"m.s-1","parameterCategory":1,"la1":30.2991,"la2":30.254,"lo1":-89.0895,"lo2":-89.0444,"dy":0.0017,"dx":0.0017,"nx":28,"ny":28,"refTime":"2025-09-10T21:00:00:Z","depth":0,"parameterNumber":2,"parameterNumberName":"U-component_of_WINDS"},"data":[0,0,0,0,0,0,0,0,0,0,0,0,0,0,0,0,0,0,0,0,0,0,0,0,0,0,0,0,0,0,0,0,0,0,0,0,0,0,0,0,0,0,0,0,0,0,0,0,0,0,0,0,0,0,0,0,0,0,0.6953,0.6952,0,0.6848,0.6846,0.6845,0.6764,0.6764,0.6763,0.6762,0.665,0.6648,0.6646,0,0,0,0,0,0,0,0,0,0,0,0,0,0.708,0.7078,0.6953,0.6952,0.695,0.6848,0.6846,0.6845,0.6764,0.6764,0.6763,0.6762,0.6651,0.6648,0.6646,0,0,0,0,0,0,0,0,0,0,0,0,0,0.7005,0.7078,0.6953,0.6898,0.6892,0.6848,0.6846,0.6844,0.6765,0.6764,0.6762,0.6761,0.6652,0.6649,0.6645,0.6646,0,0,0.6635,0.6633,0,0,0,0,0,0,0,0,0.7009,0.7,0.6907,0.6902,0.6895,0.6818,0.685,0.6778,0.6765,0.6813,0.6762,0.6761,0.6707,0.6699,0.6681,0.6641,0.6636,0.6634,0.6632,0.6631,0.663,0,0,0,0,0,0,0,0.7015,0.7004,0.6911,0.6906,0.6898,0.6877,0.6865,0.6836,0.6767,0.6809,0.6802,0.6791,0.6703,0.6685,0.6678,0.6635,0.6635,0.6631,0.6629,0.6628,0.659,0.6591,0,0,0,0,0,0,0.7029,0.7009,0.6914,0.6908,0.6951,0.6876,0.6862,0.6844,0.6767,0.6755,0.6792,0.6788,0.6691,0.6682,0.6674,0.667,0.6631,0.6628,0.6626,0.6589,0.659,0.6591,0,0,0,0,0,0,0.7032,0.7021,0.6919,0.6957,0.6942,0.6875,0.6854,0.6842,0.6824,0.6755,0.6742,0.6787,0.669,0.6679,0.6654,0.6665,0.6626,0.6623,0.6588,0.6589,0.6591,0.6663,0,0,0,0,0,0,0.7036,0.7023,0.7024,0.6958,0.6941,0.6902,0.6855,0.6841,0.6819,0.6812,0.6746,0.6734,0.6688,0.666,0.6651,0.666,0.662,0.6586,0.6588,0.659,0.6659,0.6667,0.6674,0,0,0,0,0,0.7041,0.7047,0.7024,0.7013,0.694,0.6903,0.6893,0.6841,0.682,0.682,0.6775,0.6736,0.6666,0.6658,0.6647,0.6655,0.6585,0.6588,0.659,0.6656,0.6666,0.6673,0,0,0,0,0,0,0.7115,0.7038,0.7011,0.6997,0.6957,0.6889,0.6887,0.6852,0.6817,0.6812,0.6747,0.6733,0.6716,0.6682,0.6676,0.6652,0.662,0.6621,0.6674,0.6683,0.669,0.6698,0.6618,0,0,0,0,0,0.713,0.7108,0.7041,0.7034,0.7016,0.6956,0.6937,0.6901,0.6856,0.6839,0.6793,0.675,0.6718,0.6698,0.6665,0.6654,0.6638,0.6654,0.6662,0.6668,0.6669,0.666,0.6666,0.6599,0.6599,0.6599,0,0,0.716,0.7115,0.7105,0.7048,0.7013,0.699,0.6942,0.6919,0.6901,0.6835,0.6809,0.6774,0.6722,0.6705,0.6695,0.6677,0.6684,0.6671,0.6676,0.6673,0.6663,0.6669,0.6675,0.66,0.66,0.66,0,0,0.7204,0.7168,0.7159,0.7125,0.7073,0.7033,0.7031,0.6968,0.6943,0.6916,0.6866,0.6843,0.6789,0.6754,0.673,0.676,0.6723,0.6751,0.6787,0.678,0.6785,0.6789,0.68,0.6805,0.6752,0.6752,0.6752,0,0.7247,0.7212,0.7158,0.7139,0.7115,0.7055,0.7045,0.7014,0.6954,0.6938,0.692,0.6851,0.6812,0.6785,0.6793,0.6775,0.677,0.6758,0.6789,0.6793,0.6796,0.6805,0.681,0.6756,0.6756,0.6755,0.6755,0,0.7268,0.7244,0.7243,0.7188,0.7164,0.7149,0.7092,0.7074,0.7039,0.7001,0.6974,0.6925,0.6881,0.6872,0.6837,0.684,0.683,0.6801,0.6768,0.6807,0.6815,0.6818,0.6761,0.676,0.6759,0.6758,0,0,0.7355,0.7271,0.7271,0.7246,0.7184,0.7164,0.7146,0.7104,0.709,0.705,0.7033,0.6989,0.6962,0.6934,0.6895,0.6888,0.6915,0.6859,0.6857,0.6871,0.6915,0.6937,0.6943,0.689,0.6891,0.6891,0.6919,0,0.7389,0.7356,0.7306,0.7288,0.7265,0.7208,0.7193,0.7153,0.7116,0.709,0.7048,0.7019,0.6985,0.6968,0.6959,0.6914,0.6923,0.6911,0.6873,0.6872,0.6888,0.6947,0.697,0.6999,0.6922,0.6922,0.6923,0,0.7424,0.7389,0.737,0.731,0.7298,0.7286,0.7243,0.722,0.7173,0.7146,0.7116,0.7073,0.705,0.7021,0.6987,0.6981,0.6962,0.6937,0.6937,0.6931,0.69,0.6942,0.7007,0.7012,0.6927,0.6926,0.6926,0,0.7489,0.7437,0.7419,0.7398,0.7329,0.7321,0.7291,0.7243,0.7221,0.7184,0.7169,0.7129,0.7106,0.7076,0.7023,0.7007,0.6996,0.6962,0.6972,0.6974,0.6973,0.6973,0.7035,0.6961,0.6961,0.6961,0.6961,0,0.7532,0.7522,0.7448,0.7436,0.7423,0.7366,0.7355,0.7319,0.7277,0.7257,0.7204,0.7186,0.7119,0.7092,0.7051,0.703,0.702,0.6997,0.6986,0.7002,0.7005,0.6988,0.6985,0.6962,0.6961,0.6961,0.6961,0,0.7603,0.7553,0.7529,0.7465,0.7449,0.7442,0.7387,0.7373,0.7334,0.7309,0.73,0.7237,0.7203,0.7148,0.7098,0.707,0.7056,0.7038,0.7073,0.7066,0.708,0.7079,0.7133,0.7137,0.7061,0.7062,0.7062,0,0.7634,0.7625,0.7561,0.7545,0.7518,0.7492,0.7469,0.7412,0.7391,0.7337,0.7329,0.7292,0.7259,0.7207,0.7156,0.7117,0.7098,0.7119,0.7091,0.7107,0.7098,0.7099,0.7098,0.7126,0.7127,0.7128,0.7129,0,0.7694,0.7669,0.764,0.7602,0.7578,0.7545,0.7509,0.7498,0.7432,0.7411,0.7377,0.7351,0.73,0.7263,0.7218,0.7185,0.7146,0.7138,0.7138,0.7154,0.7175,0.7164,0.709,0.7137,0.7136,0.7135,0.7135,0.7135,0.7745,0.7735,0.7689,0.7658,0.7625,0.7593,0.7577,0.7536,0.7507,0.7462,0.743,0.7398,0.735,0.7285,0.7254,0.7227,0.721,0.721,0.721,0.7211,0.7217,0.7179,0.7218,0.7218,0.7218,0.7218,0.7217,0,0.7802,0.777,0.7742,0.7694,0.767,0.7637,0.7595,0.7577,0.755,0.7509,0.7478,0.7438,0.7402,0.7349,0.7308,0.7297,0.7278,0.7288,0.7288,0.7282,0.7235,0.7239,0.7304,0.7304,0.7304,0.7304,0.7304,0.7304,0.7829,0.781,0.778,0.7744,0.7711,0.7681,0.766,0.763,0.7597,0.7556,0.7526,0.7492,0.7446,0.7402,0.7367,0.7352,0.7339,0.7355,0.7335,0.7293,0.7285,0.7277,0.728,0.7353,0.7353,0.7383,0.7383,0.7384]},{"header":{"parameterUnit":"m.s-1","parameterCategory":1,"la1":30.2991,"la2":30.254,"lo1":-89.0895,"lo2":-89.0444,"dy":0.0017,"dx":0.0017,"nx":28,"ny":28,"refTime":"2025-09-10T21:00:00:Z","depth":0,"parameterNumber":3,"parameterNumberName":"V-component_of_WINDS"},"data":[0,0,0,0,0,0,0,0,0,0,0,0,0,0,0,0,0,0,0,0,0,0,0,0,0,0,0,0,0,0,0,0,0,0,0,0,0,0,0,0,0,0,0,0,0,0,0,0,0,0,0,0,0,0,0,0,0,0,-2.1952,-2.1953,0,-2.2033,-2.2034,-2.2035,-2.2034,-2.2033,-2.2032,-2.2031,-2.2112,-2.2115,-2.2118,0,0,0,0,0,0,0,0,0,0,0,0,0,-2.1795,-2.1798,-2.1952,-2.1953,-2.1954,-2.2033,-2.2034,-2.2035,-2.2034,-2.2033,-2.2031,-2.203,-2.2111,-2.2115,-2.2119,0,0,0,0,0,0,0,0,0,0,0,0,0,-2.1868,-2.1799,-2.1952,-2.1963,-2.1965,-2.2033,-2.2034,-2.2036,-2.2034,-2.2033,-2.2031,-2.203,-2.211,-2.2114,-2.2119,-2.2181,0,0,-2.2134,-2.2136,0,0,0,0,0,0,0,0,-2.1864,-2.1874,-2.196,-2.1962,-2.1964,-2.2022,-2.2009,-2.2084,-2.2035,-2.2008,-2.2031,-2.2029,-2.2083,-2.209,-2.2109,-2.2185,-2.2188,-2.2134,-2.2137,-2.2139,-2.214,0,0,0,0,0,0,0,-2.1859,-2.187,-2.1984,-2.1962,-2.1964,-2.1964,-2.1972,-2.2023,-2.2054,-2.201,-2.201,-2.202,-2.2084,-2.2104,-2.2111,-2.219,-2.2134,-2.2138,-2.2141,-2.2143,-2.2321,-2.2323,0,0,0,0,0,0,-2.1852,-2.1866,-2.1982,-2.1987,-2.1909,-2.1968,-2.1977,-2.2005,-2.2053,-2.2059,-2.2021,-2.202,-2.2097,-2.2105,-2.2114,-2.219,-2.2139,-2.2144,-2.2146,-2.2319,-2.2321,-2.2323,0,0,0,0,0,0,-2.1848,-2.1862,-2.1978,-2.1926,-2.1941,-2.1972,-2.2003,-2.2007,-2.2028,-2.2062,-2.2067,-2.2036,-2.2096,-2.2107,-2.2165,-2.2192,-2.2146,-2.215,-2.2317,-2.232,-2.2322,-2.2342,0,0,0,0,0,0,-2.1844,-2.1861,-2.1885,-2.1927,-2.1944,-2.2028,-2.2005,-2.201,-2.2036,-2.2035,-2.2077,-2.2083,-2.2096,-2.2157,-2.2169,-2.2198,-2.2154,-2.2314,-2.2318,-2.2321,-2.2339,-2.2345,-2.235,0,0,0,0,0,-2.1838,-2.1886,-2.1886,-2.19,-2.1975,-2.203,-2.2039,-2.2054,-2.2038,-2.2063,-2.2085,-2.2081,-2.2187,-2.2163,-2.2177,-2.2207,-2.2313,-2.2317,-2.2321,-2.2336,-2.2344,-2.235,0,0,0,0,0,0,-2.1846,-2.1892,-2.1892,-2.1956,-2.1989,-2.2029,-2.206,-2.2061,-2.2099,-2.2096,-2.2112,-2.2122,-2.2179,-2.2199,-2.2171,-2.227,-2.2248,-2.2255,-2.2255,-2.2262,-2.2268,-2.2262,-2.2158,0,0,0,0,0,-2.1855,-2.1896,-2.1934,-2.1987,-2.2004,-2.2029,-2.2054,-2.2062,-2.2097,-2.2111,-2.2137,-2.217,-2.2211,-2.2238,-2.2277,-2.2342,-2.2351,-2.2369,-2.2375,-2.2379,-2.2385,-2.2421,-2.243,-2.2337,-2.2337,-2.2337,0,0,-2.1874,-2.1905,-2.193,-2.1989,-2.2016,-2.2058,-2.2041,-2.2086,-2.2117,-2.2117,-2.2174,-2.2194,-2.2232,-2.2294,-2.2322,-2.2312,-2.2413,-2.2385,-2.2388,-2.2392,-2.2426,-2.2435,-2.2443,-2.234,-2.2339,-2.2339,0,0,-2.1931,-2.1958,-2.2005,-2.2032,-2.2073,-2.209,-2.2102,-2.2142,-2.2156,-2.2213,-2.2214,-2.2251,-2.2322,-2.2349,-2.2372,-2.244,-2.2439,-2.2453,-2.2482,-2.2517,-2.2524,-2.2531,-2.2555,-2.2564,-2.2458,-2.2458,-2.2459,0,-2.1949,-2.2013,-2.2029,-2.2075,-2.2101,-2.2104,-2.2151,-2.2177,-2.2228,-2.2246,-2.2234,-2.2323,-2.2349,-2.2417,-2.2434,-2.2452,-2.2466,-2.2448,-2.2522,-2.2529,-2.2535,-2.2559,-2.2568,-2.246,-2.246,-2.246,-2.2459,0,-2.2034,-2.2079,-2.2111,-2.2162,-2.2192,-2.2238,-2.226,-2.2289,-2.2295,-2.2313,-2.2371,-2.2403,-2.2449,-2.2466,-2.2471,-2.2535,-2.2527,-2.2519,-2.2497,-2.2545,-2.2567,-2.2576,-2.2462,-2.2461,-2.2461,-2.2461,0,0,-2.2097,-2.2157,-2.2168,-2.2192,-2.2238,-2.2272,-2.2318,-2.2364,-2.2388,-2.2424,-2.2463,-2.2523,-2.2516,-2.2542,-2.2551,-2.2582,-2.2634,-2.257,-2.2571,-2.2581,-2.2706,-2.2712,-2.2722,-2.2634,-2.2635,-2.2637,-2.2703,0,-2.2159,-2.2242,-2.2258,-2.233,-2.2371,-2.2375,-2.2415,-2.2448,-2.2466,-2.2504,-2.2524,-2.2566,-2.2553,-2.2569,-2.2599,-2.2621,-2.2659,-2.2617,-2.267,-2.2672,-2.266,-2.2734,-2.2741,-2.2801,-2.2712,-2.2713,-2.2714,0,-2.2241,-2.228,-2.2357,-2.2398,-2.2416,-2.2452,-2.2496,-2.2531,-2.2568,-2.2579,-2.2609,-2.2615,-2.2664,-2.264,-2.2707,-2.2678,-2.27,-2.2715,-2.2717,-2.2723,-2.2696,-2.2741,-2.2821,-2.283,-2.2728,-2.2727,-2.2726,0,-2.228,-2.2351,-2.2406,-2.2426,-2.2475,-2.2501,-2.2522,-2.2558,-2.2584,-2.2623,-2.264,-2.2683,-2.2707,-2.274,-2.2757,-2.2738,-2.2823,-2.28,-2.2833,-2.2833,-2.2851,-2.2849,-2.2935,-2.2865,-2.2865,-2.2865,-2.2865,0,-2.2347,-2.2393,-2.2424,-2.2458,-2.2511,-2.2528,-2.258,-2.2601,-2.2633,-2.267,-2.2676,-2.2712,-2.2732,-2.2771,-2.2785,-2.2838,-2.2849,-2.2859,-2.2862,-2.2859,-2.2857,-2.2874,-2.287,-2.2868,-2.2867,-2.2867,-2.2866,0,-2.2398,-2.2421,-2.2481,-2.2523,-2.2535,-2.2572,-2.2608,-2.2641,-2.2659,-2.2707,-2.272,-2.2749,-2.2794,-2.2815,-2.2871,-2.2881,-2.2942,-2.2942,-2.2929,-2.2931,-2.2962,-2.2959,-2.3062,-2.3076,-2.2997,-2.2997,-2.2998,0,-2.2439,-2.2476,-2.2522,-2.2548,-2.2571,-2.2613,-2.264,-2.2659,-2.2688,-2.2733,-2.2761,-2.2807,-2.2844,-2.2917,-2.2943,-2.2986,-2.2987,-2.3021,-2.2994,-2.2989,-2.2988,-2.2986,-2.299,-2.3025,-2.3026,-2.3027,-2.3027,0,-2.251,-2.252,-2.256,-2.2604,-2.2637,-2.2673,-2.2708,-2.2729,-2.2753,-2.2785,-2.2832,-2.2861,-2.2919,-2.2965,-2.301,-2.3032,-2.3034,-2.3035,-2.3045,-2.3042,-2.3033,-2.3039,-2.2943,-2.3033,-2.3032,-2.3032,-2.3031,-2.3031,-2.2558,-2.2591,-2.2629,-2.2673,-2.2702,-2.2734,-2.2768,-2.2791,-2.2831,-2.288,-2.2888,-2.2939,-2.2975,-2.3036,-2.3059,-2.3099,-2.3091,-2.3105,-2.3109,-2.3112,-2.3114,-2.3027,-2.3107,-2.3107,-2.3107,-2.3107,-2.3107,0,-2.2629,-2.2654,-2.2695,-2.2744,-2.2779,-2.2779,-2.2817,-2.2847,-2.2891,-2.2925,-2.2963,-2.3017,-2.3062,-2.3091,-2.3137,-2.3162,-2.3164,-2.3174,-2.3172,-2.3177,-2.3118,-2.3105,-2.3171,-2.3171,-2.3171,-2.3171,-2.3171,-2.3171,-2.267,-2.2726,-2.274,-2.2809,-2.2834,-2.2884,-2.2906,-2.2936,-2.2964,-2.3024,-2.3062,-2.3081,-2.3114,-2.3161,-2.3202,-2.321,-2.3226,-2.3236,-2.3243,-2.3188,-2.3181,-2.3175,-2.3162,-2.3239,-2.3239,-2.3298,-2.3299,-2.3299]}]]